TimeCST,TemperatureF,Dew PointF,Humidity,Sea Level PressureIn,VisibilityMPH,Wind Direction,Wind SpeedMPH,Gust SpeedMPH,PrecipitationIn,Events,Conditions,WindDirDegrees,DateUTC
12:53 AM,55.0,12.9,19,29.69,10.0,SW,12.7,-,N/A,,Clear,220,2012-01-22 06:53:00
1:53 AM,60.1,10.0,14,29.66,10.0,SSW,18.4,-,N/A,,Clear,210,2012-01-22 07:53:00
2:53 AM,55.9,12.0,18,29.65,10.0,South,11.5,-,N/A,,Clear,190,2012-01-22 08:53:00
3:53 AM,61.0,12.0,15,29.62,10.0,SW,16.1,-,N/A,,Clear,230,2012-01-22 09:53:00
4:53 AM,63.0,12.9,14,29.61,10.0,SW,19.6,-,N/A,,Clear,220,2012-01-22 10:53:00
5:53 AM,63.0,12.9,14,29.62,10.0,SW,18.4,24.2,N/A,,Clear,230,2012-01-22 11:53:00
6:53 AM,62.1,14.0,15,29.65,10.0,SW,19.6,-,N/A,,Clear,230,2012-01-22 12:53:00
7:53 AM,57.0,16.0,20,29.70,10.0,WSW,11.5,-,N/A,,Scattered Clouds,240,2012-01-22 13:53:00
8:32 AM,57.2,15.8,20,29.79,10.0,SSW,6.9,-,N/A,,Overcast,210,2012-01-22 14:32:00
8:53 AM,59.0,15.1,18,29.71,10.0,Calm,Calm,-,N/A,,Scattered Clouds,0,2012-01-22 14:53:00
9:29 AM,66.2,6.8,10,29.82,2.5,West,19.6,29.9,N/A,,Haze,280,2012-01-22 15:29:00
9:38 AM,66.2,6.8,10,29.82,1.2,West,21.9,31.1,N/A,,Haze,270,2012-01-22 15:38:00
9:47 AM,66.2,6.8,10,29.86,3.0,NW,16.1,29.9,N/A,,Haze,320,2012-01-22 15:47:00
10:00 AM,66.2,8.6,11,29.87,9.0,NW,20.7,28.8,N/A,,Overcast,320,2012-01-22 16:00:00
10:09 AM,66.2,6.8,10,29.86,10.0,WNW,20.7,32.2,N/A,,Overcast,300,2012-01-22 16:09:00
10:53 AM,66.9,12.0,12,29.80,10.0,NW,31.1,39.1,N/A,,Overcast,320,2012-01-22 16:53:00
11:15 AM,68.0,14.0,12,29.89,10.0,NW,35.7,42.6,N/A,,Mostly Cloudy,320,2012-01-22 17:15:00
11:53 AM,68.0,10.9,11,29.80,7.0,NW,31.1,42.6,N/A,,Overcast,310,2012-01-22 17:53:00
12:09 PM,68.0,8.6,10,29.90,5.0,WNW,28.8,39.1,N/A,,Haze,300,2012-01-22 18:09:00
12:48 PM,68.0,12.2,12,29.89,10.0,WNW,25.3,42.6,N/A,,Scattered Clouds,300,2012-01-22 18:48:00
12:53 PM,68.0,10.9,11,29.79,10.0,WNW,31.1,40.3,N/A,,Partly Cloudy,300,2012-01-22 18:53:00
1:53 PM,69.1,6.1,9,29.76,10.0,WNW,28.8,42.6,N/A,,Clear,290,2012-01-22 19:53:00
2:53 PM,69.1,8.1,9,29.77,10.0,WNW,23.0,38.0,N/A,,Clear,290,2012-01-22 20:53:00
3:53 PM,69.1,1.9,7,29.77,10.0,WNW,25.3,33.4,N/A,,Clear,300,2012-01-22 21:53:00
4:53 PM,66.9,5.0,9,29.78,10.0,NW,17.3,27.6,N/A,,Clear,310,2012-01-22 22:53:00
6:53 PM,57.9,6.1,13,29.85,10.0,WNW,10.4,-,N/A,,Clear,290,2012-01-23 00:53:00
7:53 PM,57.0,8.1,14,29.88,10.0,West,10.4,-,N/A,,Clear,280,2012-01-23 01:53:00
8:53 PM,52.0,10.0,19,29.92,10.0,NNW,8.1,-,N/A,,Clear,330,2012-01-23 02:53:00
9:53 PM,48.9,12.0,23,29.93,10.0,SW,6.9,-,N/A,,Clear,230,2012-01-23 03:53:00
10:53 PM,45.0,15.1,30,29.94,10.0,WSW,9.2,-,N/A,,Clear,240,2012-01-23 04:53:00
11:53 PM,46.9,12.9,25,29.96,10.0,West,6.9,-,N/A,,Clear,270,2012-01-23 05:53:00